Home   Weather   Sonthofen   Past weeks

Flag for Germany Past Weather in Sonthofen, Bavaria, Germany — Yesterday and Last 2 Weeks

Now
75 °F

Mild.


Feels Like: 77 °F
Forecast: 49 / 69 °F
Wind: 2 mph from Northwest

Location: Bregenz

Current Time: Sep 30, 2016 at 5:26:21 PM

Latest Report: Sep 30, 2016 at 4:00 PM


Visibility: N/A

Pressure: 29.96 "Hg (27.49 "Hg at 748m altitude)

Humidity: 38%

Dew Point: 47 °F

Location of SonthofenLocation

Past Weather in Sonthofen — Graph

°F

Sonthofen Temperature Yesterday

Maximum temperature yesterday: 75 °F (at 5:00 PM)
Minimum temperature yesterday: 52 °F (at 6:00 AM)
Average temperature yesterday: 62 °F

High & Low Weather Summary for the Past Weeks

 TemperatureHumidityPressure
High75 °F (Sep 29, 5:00 PM)98% (Sep 24, 9:00 AM)30.45 "Hg (Sep 24, 9:00 AM)
Low48 °F (Sep 24, 7:00 AM)36% (Sep 30, 3:00 PM)29.85 "Hg (Sep 15, 5:00 PM)
Average59 °F82%30.13 "Hg
* Reported Sep 15 4:00 PM — Sep 30 4:00 PM, Sonthofen, Weather by CustomWeather, © 2016

Note: Actual official high and low records may vary slightly from our data, if they occured in-between our weather recording intervals... More about our weather records

Advertising

Sonthofen Weather History for the Previous 24 Hours

Scroll right to see more
 ConditionsComfort  
Time TempWeatherWind HumidityBarometerVisibility
4:00 PM
Fri, Sep 30
75 °FMild.2 mph38%29.96 "HgN/A
3:00 PM74 °FMild.2 mph36%29.98 "HgN/A
2:00 PM73 °FPassing clouds.2 mph38%30.00 "Hg12 mi
1:00 PM72 °FMild.2 mph44%30.02 "HgN/A
12:00 PM69 °FMild.3 mph51%30.04 "HgN/A
11:00 AM65 °FSunny.6 mph62%30.06 "Hg12 mi
10:00 AM64 °FMild.3 mph60%30.06 "HgN/A
9:00 AM54 °FCool.1 mph82%30.09 "HgN/A
8:00 AM54 °FSunny.No wind84%30.09 "Hg12 mi
7:00 AM53 °FClear.2 mph86%30.09 "Hg12 mi
6:00 AM53 °FCool.3 mph85%30.09 "HgN/A
5:00 AM54 °FCool.3 mph82%30.09 "HgN/A
4:00 AM55 °FCool.5 mph79%30.10 "HgN/A
3:00 AM64 °FMild.5 mph60%30.09 "HgN/A
2:00 AM62 °FMild.5 mph64%30.10 "HgN/A
1:00 AM62 °FCool.6 mph65%30.11 "HgN/A
12:00 AM62 °FCool.5 mph66%30.12 "HgN/A
11:00 PM
Thu, Sep 29
59 °FCool.5 mph76%30.12 "HgN/A
10:00 PM63 °FMild.6 mph66%30.11 "HgN/A
9:00 PM61 °FCool.2 mph76%30.12 "HgN/A
8:00 PM62 °FCool.2 mph73%30.11 "HgN/A
7:00 PM64 °FMild.2 mph72%30.11 "HgN/A
6:00 PM70 °FMild.1 mph58%30.10 "HgN/A
5:00 PM75 °FMild.2 mph42%30.10 "HgN/A
Weather by CustomWeather, © 2016

See weather overviewHow to use our weather pages